Location: Newark
(7.0858°N, 171.3717°E)
Time: 09:59:04
(UTC+00:00)

A-11 Canister half - Pass Details

Date: 04 August 2021
Orbit: 1526 x 1683 km, 47.3° (Epoch: 23 September)

Event Time Altitude Azimuth Distance (km) Brightness Sun altitude
Rises 09:51:29 0° 278° (W) 4,723 12.3 -41.7°
Reaches altitude 10° 09:57:30 10° 249° (WSW) 3,711 11.3 -43.0°
Maximum altitude 10:00:30 12° 230° (SW) 3,556 11.0 -43.6°
Enters shadow 10:02:23 11° 218° (SW) 3,607 10.9 -44.0°
